Fryeburg, ME

1:20 AM EDT on July 25, 2017 (GMT -0400)
Eastern Slopes Regional

Weather History for KIZG - February, 2015

Change the Weather History Date:

Sunday, February 1, 2015

  Actual Average Record
Temperature  
Mean Temperature 3 °F -  
Max Temperature 21 °F 30 °F 55 °F (2016)
Min Temperature -15 °F 5 °F -15 °F (2015)
Degree Days  
Heating Degree Days 62    
Moisture  
Dew Point -11 °F    
Average Humidity 60    
Maximum Humidity 82    
Minimum Humidity 29    
Precipitation  
Precipitation 0.00 in - - ()
Sea Level Pressure  
Sea Level Pressure 30.08 in    
Wind  
Wind Speed 2 mph (West)    
Max Wind Speed 10 mph    
Max Gust Speed 16 mph    
Visibility 10 miles    
Events      
Averages and records for this station are not official NWS values.
T = Trace of Precipitation, MM = Missing Value Source: NWS Daily Summary

Daily Weather History Graph

Daily Weather History Graph

Search for Another Location

Airport or City:

Trip Planner

Search our weather history database for the weather conditions in past years. The results will help you decide how hot, cold, wet, or windy it might be!

Date:

Astronomy

Feb. 01, 2015 Rise Set
Actual Time 7:01 AM EST 4:53 PM EST
Civil Twilight 6:30 AM EST 5:24 PM EST
Nautical Twilight 5:56 AM EST 5:59 PM EST
Astronomical Twilight 5:22 AM EST 6:32 PM EST
Moon 3:08 PM EST (2/1) 5:08 AM EST (2/1)
Length of Visible Light 10h 53m
Length of Day
9h 52m
Waxing Gibbous, 95% of the Moon is Illuminated
Feb 1
Waxing Gibbous
Feb 3
Full
Feb 11
Last Quarter
Feb 18
New
Feb 25
First Quarter

Hourly Weather History & Observations

Time (EST) Temp. Windchill Dew Point Humidity Pressure Visibility Wind Dir Wind Speed Gust Speed Precip Events Conditions
12:54 AM -9.0 °F - -15.0 °F 75% 29.96 in 10.0 mi Calm Calm - N/A   Clear
1:54 AM -11.9 °F - -17.0 °F 78% 29.98 in 10.0 mi Calm Calm - N/A   Clear
2:54 AM -11.9 °F - -17.0 °F 78% 29.98 in 10.0 mi Calm Calm - N/A   Clear
3:54 AM -14.1 °F -26.3 °F -18.0 °F 82% 29.98 in 10.0 mi SSE 4.6 mph - N/A   Clear
4:54 AM -11.9 °F - -18.0 °F 74% 30.00 in 10.0 mi Calm Calm - N/A   Clear
5:54 AM -15.0 °F - -20.0 °F 78% 30.01 in 10.0 mi Calm Calm - N/A   Clear
6:54 AM -15.0 °F - -20.0 °F 78% 30.03 in 10.0 mi Calm Calm - N/A   Clear
7:54 AM -8.0 °F - -13.0 °F 79% 30.05 in 10.0 mi Calm Calm - N/A   Clear
8:54 AM 7.0 °F - -2.0 °F 67% 30.05 in 10.0 mi Calm Calm - N/A   Clear
9:54 AM 16.0 °F 10.4 °F -0.0 °F 49% 30.06 in 10.0 mi Variable 3.5 mph - N/A   Clear
10:54 AM 19.9 °F 14.9 °F -4.0 °F 35% 30.07 in 10.0 mi ENE 3.5 mph - N/A   Clear
11:54 AM 21.0 °F 9.9 °F -4.0 °F 33% 30.07 in 10.0 mi WNW 10.4 mph - N/A   Clear
12:54 PM 21.0 °F 9.9 °F -5.1 °F 32% 30.07 in 10.0 mi WNW 10.4 mph 16.1 mph N/A   Clear
1:54 PM 21.9 °F 17.2 °F -5.1 °F 30% 30.06 in 10.0 mi Variable 3.5 mph - N/A   Clear
2:54 PM 21.0 °F 13.4 °F -6.0 °F 30% 30.09 in 10.0 mi Variable 5.8 mph - N/A   Clear
3:54 PM 19.9 °F 14.9 °F -8.0 °F 29% 30.11 in 10.0 mi WNW 3.5 mph - N/A   Clear
4:54 PM 14.0 °F 8.2 °F -8.0 °F 37% 30.14 in 10.0 mi WNW 3.5 mph - N/A   Clear
5:54 PM 7.0 °F - -8.0 °F 51% 30.16 in 10.0 mi Calm Calm - N/A   Clear
6:54 PM 1.9 °F -5.6 °F -8.0 °F 63% 30.17 in 10.0 mi WSW 3.5 mph - N/A   Clear
7:54 PM -0.9 °F - -9.9 °F 66% 30.17 in 10.0 mi Calm Calm - N/A   Clear
8:54 PM -2.9 °F - -11.0 °F 68% 30.16 in 10.0 mi Calm Calm - N/A   Clear
9:54 PM -9.9 °F - -15.0 °F 78% 30.17 in 10.0 mi Calm Calm - N/A   Clear
10:54 PM -9.0 °F -18.2 °F -14.1 °F 79% 30.17 in 10.0 mi West 3.5 mph - N/A   Clear
11:54 PM -9.0 °F - -14.1 °F 79% 30.16 in 10.0 mi Calm Calm - N/A   Clear